Find Starlink 30240

NORAD ID: 57404 Int'l Des: 2023-102 Owner: SPXS Country: US Constellation: starlink operational
LEOCIRCULAR

当前视图

正在加载3D地球...

About Starlink 30240

Starlink 30240 (NORAD 57404) is a starlink constellation satellite (v2 mini) launched Jul 19, 2023 by SPXS of US. It operates in LEO, CIRCULAR orbit with a mass of 730.00 kg.

关于 Starlink 30240

正在加载描述...

即将过境

Passes for default location (London). Set your location on the main map for personalized predictions.

高度历史

Loading altitude history...

两行轨道根数

1 57404U 23102A 26169.01850268 -.00000106 00000-0 56981-5 0 9994
2 57404 43.0030 42.0027 0001747 270.9435 89.1216 15.27576818161584
Epoch: Jun 18, 2026 • Age: 14 hours

当前状态

高度 484.3 km
速度 7.63 km/s
星下点 29.34°N, 52.89°W
发射日期 Jul 19, 2023
运行时间 2.9 years
类型 internet

技术详情

分类 Payload
质量 730.00 kg
干质量 700.00 kg
总质量 730.00 kg
长度 0.30 m
直径 4.10 m
跨度 29.00 m
形状 Box + pan
制造商 SPXS
平台类型 Starlink V2M
阶段状态 In Orbit
所有者/国家 SPXS/US

Most Searched